Rochester/St. Mary\'s Hospita, MN

7:38 PM CDT on June 23, 2018 (GMT -0500)
Rochester/St. Mary\'s Hospita

Weather History for K9MN - October, 2017

Change the Weather History Date:

Wednesday, October 25, 2017

  Actual Average (KRST) Record (KRST)
Temperature  
Mean Temperature 45 °F -  
Max Temperature 55 °F 53 °F 78 °F (1989)
Min Temperature 35 °F 35 °F -6 °F (1887)
Degree Days  
Heating Degree Days 20    
Moisture  
Dew Point 33 °F    
Average Humidity 65    
Maximum Humidity 86    
Minimum Humidity 43    
Precipitation  
Precipitation 0.00 in - - ()
Sea Level Pressure  
Sea Level Pressure 29.74 in    
Wind  
Wind Speed 7 mph (WSW)    
Max Wind Speed 10 mph    
Max Gust Speed 16 mph    
Visibility 10 miles    
Events      
Averages and records for this station are not official NWS values.
T = Trace of Precipitation, MM = Missing Value Source: NWS Daily Summary

Daily Weather History Graph

Daily Weather History Graph

Search for Another Location

Airport or City:

Astronomy

Oct. 25, 2017 Rise Set
Actual Time 7:37 AM CDT 6:09 PM CDT
Civil Twilight 7:07 AM CDT 6:39 PM CDT
Nautical Twilight 6:34 AM CDT 7:12 PM CDT
Astronomical Twilight 6:00 AM CDT 7:46 PM CDT
Moon 12:51 PM CDT (10/25) 10:27 PM CDT (10/25)
Length of Visible Light 11h 31m
Length of Day
10h 31m
Waxing Crescent, 30% of the Moon is Illuminated
Oct 25
Waxing Crescent
Oct 27
First Quarter
Nov 4
Full
Nov 10
Last Quarter
Nov 18
New

Hourly Weather History & Observations

Time (CDT) Temp. Windchill Dew Point Humidity Pressure Visibility Wind Dir Wind Speed Gust Speed Precip Events Conditions
12:12 AM 39.4 °F 32.7 °F 30.9 °F 72% 29.85 in 10.0 mi West 10.4 mph 16.1 mph N/A   Clear
12:32 AM 38.8 °F 33.8 °F 31.1 °F 74% 29.84 in 10.0 mi West 6.9 mph - N/A   Clear
12:51 AM 38.5 °F 32.7 °F 31.1 °F 75% 29.83 in 10.0 mi West 8.1 mph - N/A   Scattered Clouds
1:12 AM 38.5 °F 32.1 °F 31.1 °F 75% 29.83 in 10.0 mi West 9.2 mph - N/A   Scattered Clouds
1:32 AM 38.3 °F 31.9 °F 31.1 °F 75% 29.82 in 10.0 mi West 9.2 mph - N/A   Mostly Cloudy
1:51 AM 38.3 °F 33.2 °F 31.1 °F 75% 29.81 in 10.0 mi West 6.9 mph - N/A   Overcast
2:12 AM 38.7 °F 32.9 °F 31.3 °F 75% 29.80 in 10.0 mi West 8.1 mph - N/A   Overcast
2:32 AM 38.8 °F 33.2 °F 31.5 °F 75% 29.78 in 10.0 mi West 8.1 mph - N/A   Overcast
2:51 AM 39.2 °F 35.0 °F 31.6 °F 74% 29.78 in 10.0 mi West 5.8 mph - N/A   Mostly Cloudy
3:12 AM 38.5 °F 33.4 °F 31.6 °F 76% 29.77 in 10.0 mi WSW 6.9 mph - N/A   Overcast
3:32 AM 38.1 °F 33.7 °F 31.5 °F 77% 29.76 in 10.0 mi WSW 5.8 mph - N/A   Overcast
3:51 AM 38.3 °F 35.9 °F 31.6 °F 77% 29.75 in 10.0 mi WSW 3.5 mph - N/A   Overcast
4:12 AM 37.4 °F 30.3 °F 31.6 °F 80% 29.74 in 10.0 mi SW 10.4 mph - N/A   Mostly Cloudy
4:32 AM 37.4 °F 32.8 °F 32.0 °F 81% 29.73 in 10.0 mi WSW 5.8 mph - N/A   Mostly Cloudy
4:52 AM 37.6 °F 31.6 °F 32.0 °F 80% 29.72 in 10.0 mi SW 8.1 mph - N/A   Mostly Cloudy
5:12 AM 37.8 °F - 32.0 °F 80% 29.71 in 10.0 mi Calm Calm - N/A   Mostly Cloudy
5:32 AM 38.3 °F - 31.8 °F 77% 29.70 in 10.0 mi Calm Calm - N/A   Overcast
5:52 AM 38.5 °F 35.0 °F 32.2 °F 78% 29.70 in 10.0 mi SSW 4.6 mph - N/A   Overcast
6:12 AM 38.5 °F 36.1 °F 32.0 °F 78% 29.70 in 10.0 mi South 3.5 mph - N/A   Overcast
6:32 AM 38.3 °F 34.8 °F 31.8 °F 77% 29.70 in 10.0 mi SSE 4.6 mph - N/A   Overcast
6:52 AM 37.8 °F - 32.0 °F 80% 29.70 in 10.0 mi Calm Calm - N/A   Mostly Cloudy
7:12 AM 37.0 °F - 32.0 °F 82% 29.69 in 10.0 mi Calm Calm - N/A   Scattered Clouds
7:32 AM 36.9 °F 34.3 °F 32.0 °F 83% 29.68 in 10.0 mi SSE 3.5 mph - N/A   Clear
7:52 AM 36.5 °F - 32.0 °F 84% 29.68 in 10.0 mi Calm Calm - N/A   Clear
8:12 AM 35.8 °F 31.9 °F 32.0 °F 86% 29.68 in 10.0 mi SE 4.6 mph - N/A   Clear
8:32 AM 37.8 °F 35.3 °F 32.9 °F 83% 29.69 in 10.0 mi WSW 3.5 mph - N/A   Clear
8:52 AM 39.2 °F 33.6 °F 32.0 °F 75% 29.69 in 10.0 mi WSW 8.1 mph - N/A   Clear
9:12 AM 40.3 °F 33.9 °F 32.2 °F 73% 29.69 in 10.0 mi West 10.4 mph 16.1 mph N/A   Clear
9:31 AM 41.4 °F 36.2 °F 32.5 °F 71% 29.70 in 10.0 mi West 8.1 mph - N/A   Clear
9:52 AM 42.8 °F 38.6 °F 33.4 °F 70% 29.71 in 10.0 mi WNW 6.9 mph - N/A   Clear
10:12 AM 43.9 °F 38.8 °F 33.6 °F 67% 29.72 in 10.0 mi West 9.2 mph - N/A   Clear
10:31 AM 44.6 °F 40.2 °F 33.1 °F 64% 29.72 in 10.0 mi WNW 8.1 mph - N/A   Clear
10:52 AM 45.7 °F 42.0 °F 33.3 °F 62% 29.73 in 10.0 mi NNW 6.9 mph - N/A   Clear
11:12 AM 46.4 °F 42.9 °F 33.3 °F 60% 29.73 in 10.0 mi NW 6.9 mph - N/A   Clear
11:31 AM 47.5 °F - 33.8 °F 59% 29.73 in 10.0 mi NNW 6.9 mph - N/A   Clear
11:52 AM 48.2 °F - 33.3 °F 56% 29.73 in 10.0 mi NW 5.8 mph - N/A   Clear
12:12 PM 49.1 °F - 33.4 °F 55% 29.73 in 10.0 mi NW 6.9 mph - N/A   Clear
12:31 PM 49.5 °F - 32.7 °F 53% 29.73 in 10.0 mi NW 6.9 mph - N/A   Clear
12:52 PM 50.5 °F - 33.1 °F 51% 29.73 in 10.0 mi WNW 6.9 mph - N/A   Clear
1:12 PM 51.3 °F - 33.6 °F 51% 29.74 in 10.0 mi NW 3.5 mph - N/A   Clear
1:31 PM 51.4 °F - 32.7 °F 49% 29.74 in 10.0 mi NW 9.2 mph - N/A   Clear
1:52 PM 52.0 °F - 32.7 °F 48% 29.74 in 10.0 mi NW 9.2 mph - N/A   Clear
2:12 PM 52.7 °F - 32.9 °F 47% 29.74 in 10.0 mi NNW 8.1 mph - N/A   Clear
2:31 PM 52.9 °F - 32.9 °F 47% 29.74 in 10.0 mi WNW 8.1 mph - N/A   Clear
2:52 PM 53.8 °F - 32.2 °F 44% 29.74 in 10.0 mi NNW 5.8 mph - N/A   Clear
3:12 PM 54.5 °F - 33.1 °F 44% 29.74 in 10.0 mi WNW 6.9 mph - N/A   Clear
3:31 PM 53.8 °F - 32.7 °F 45% 29.74 in 10.0 mi NNW 5.8 mph - N/A   Clear
3:52 PM 55.4 °F - 33.4 °F 43% 29.74 in 10.0 mi West 4.6 mph - N/A   Clear
4:12 PM 54.9 °F - 33.3 °F 44% 29.74 in 10.0 mi NW 4.6 mph - N/A   Clear
4:31 PM 54.9 °F - 33.6 °F 45% 29.74 in 10.0 mi Calm Calm - N/A   Clear
4:52 PM 55.4 °F - 33.8 °F 44% 29.74 in 10.0 mi WNW 3.5 mph - N/A   Clear
5:12 PM 54.9 °F - 33.1 °F 44% 29.74 in 10.0 mi Calm Calm - N/A   Clear
5:31 PM 53.6 °F - 33.1 °F 46% 29.74 in 10.0 mi Calm Calm - N/A   Clear
5:52 PM 53.6 °F - 33.4 °F 46% 29.74 in 10.0 mi Calm Calm - N/A   Clear
6:12 PM 52.7 °F - 33.1 °F 47% 29.74 in 10.0 mi Calm Calm - N/A   Clear
6:32 PM 51.8 °F - 33.8 °F 50% 29.74 in 10.0 mi ESE 3.5 mph - N/A   Clear
6:52 PM 51.3 °F - 34.5 °F 53% 29.74 in 10.0 mi ESE 5.8 mph - N/A   Clear
7:12 PM 50.0 °F - 34.0 °F 54% 29.74 in 10.0 mi ESE 5.8 mph - N/A   Clear
7:32 PM 48.6 °F - 34.7 °F 59% 29.74 in 10.0 mi SE 5.8 mph - N/A   Clear
7:52 PM 48.2 °F - 34.2 °F 58% 29.74 in 10.0 mi ESE 8.1 mph - N/A   Clear
8:12 PM 47.3 °F - 34.2 °F 60% 29.74 in 10.0 mi ESE 8.1 mph - N/A   Clear
8:32 PM 46.4 °F 42.4 °F 34.0 °F 62% 29.74 in 10.0 mi ESE 8.1 mph - N/A   Clear
8:52 PM 45.5 °F 41.3 °F 34.3 °F 65% 29.73 in 10.0 mi ESE 8.1 mph - N/A   Clear
9:12 PM 44.8 °F 40.4 °F 34.0 °F 66% 29.73 in 10.0 mi ESE 8.1 mph - N/A   Clear
9:32 PM 44.8 °F 39.9 °F 34.0 °F 66% 29.73 in 10.0 mi ESE 9.2 mph - N/A   Clear
9:52 PM 44.6 °F 40.2 °F 34.0 °F 66% 29.73 in 10.0 mi SE 8.1 mph - N/A   Clear
10:12 PM 44.6 °F 40.2 °F 33.8 °F 66% 29.73 in 10.0 mi SE 8.1 mph - N/A   Clear
10:32 PM 44.1 °F 39.5 °F 33.8 °F 67% 29.73 in 10.0 mi ESE 8.1 mph - N/A   Clear
10:52 PM 43.7 °F 39.7 °F 33.8 °F 68% 29.73 in 10.0 mi ESE 6.9 mph - N/A   Clear
11:11 PM 43.3 °F 38.6 °F 33.8 °F 69% 29.73 in 10.0 mi SE 8.1 mph - N/A   Clear
11:32 PM 43.3 °F 38.1 °F 33.8 °F 69% 29.73 in 10.0 mi SE 9.2 mph - N/A   Clear
11:52 PM 43.0 °F 38.8 °F 33.8 °F 70% 29.73 in 10.0 mi ESE 6.9 mph - N/A   Clear